Volver al catálogo

FENGYUN 1C DEB

ActivoPO
NORAD 30171·DEBRIS·🇨🇳 China

Lanzado May 10, 1999 desde Taiyuan Satellite Launch Center

Loading…

Próximos Pases (próximas 24 horas)

TLE

ActualizadoSource: Space-Track

Época: Sep 14, 2026, 01:09 UTC

1 30171U 99025UC  26257.04850358  .00000503  00000-0  33683-3 0  9996
2 30171  98.3738  95.8320 0184179 216.0341 142.8293 13.97026667  1069

Sigue FENGYUN 1C DEB en tiempo real con AllMySat

Download on the App Store